Time,TemperatureF,DewpointF,PressureIn,WindDirection,WindDirectionDegrees,WindSpeedMPH,WindSpeedGustMPH,Humidity,HourlyPrecipIn,Conditions,Clouds,dailyrainin,SoftwareType,DateUTC
2013-07-05 00:00:00,78.1,32.0,30.63,South,185,8.0,9.0,10,0.00,BC,SCT,0.00,Misterhouse,2013-07-05 07:00:00,
2013-07-05 00:05:00,77.4,32.0,30.63,WSW,257,6.0,6.0,10,0.00,BC,SCT,0.00,Misterhouse,2013-07-05 07:05:00,
2013-07-05 00:10:00,75.4,32.0,30.63,WSW,245,6.0,9.0,10,0.00,BC,SCT,0.00,Misterhouse,2013-07-05 07:10:00,
2013-07-05 00:15:00,75.2,32.0,30.63,SSW,201,7.0,12.0,10,0.00,BC,SCT,0.00,Misterhouse,2013-07-05 07:15:00,
2013-07-05 00:20:00,77.0,32.0,30.63,SW,229,11.0,11.0,10,0.00,BC,SCT,0.00,Misterhouse,2013-07-05 07:20:00,
2013-07-05 00:25:00,77.0,32.0,30.63,SSW,200,11.0,11.0,10,0.00,BC,SCT,0.00,Misterhouse,2013-07-05 07:25:00,
2013-07-05 00:30:00,75.9,32.0,30.63,WSW,257,11.0,14.0,10,0.00,BC,SCT,0.00,Misterhouse,2013-07-05 07:30:00,
2013-07-05 00:35:00,75.2,32.0,30.63,WSW,242,11.0,11.0,10,0.00,BC,SCT,0.00,Misterhouse,2013-07-05 07:35:00,
2013-07-05 00:40:00,75.6,32.0,30.63,SW,235,7.0,8.0,10,0.00,BC,SCT,0.00,Misterhouse,2013-07-05 07:40:00,
2013-07-05 00:45:00,76.5,32.0,30.63,SSW,192,9.0,15.0,10,0.00,BC,SCT,0.00,Misterhouse,2013-07-05 07:45:00,
2013-07-05 00:50:00,77.0,32.0,30.63,SW,219,10.0,11.0,10,0.00,BC,SCT,0.00,Misterhouse,2013-07-05 07:50:00,
2013-07-05 00:55:00,76.8,32.0,30.63,SSW,209,8.0,15.0,10,0.00,BC,SCT,0.00,Misterhouse,2013-07-05 07:55:00,
2013-07-05 01:00:00,77.0,32.0,30.60,SSW,201,10.0,12.0,10,0.00,BC,SCT,0.00,Misterhouse,2013-07-05 08:00:00,
2013-07-05 01:05:00,76.6,32.0,30.60,SW,232,10.0,13.0,10,0.00,BC,SCT,0.00,Misterhouse,2013-07-05 08:05:00,
2013-07-05 01:10:00,76.6,32.0,30.60,South,190,12.0,13.0,10,0.00,BC,SCT,0.00,Misterhouse,2013-07-05 08:10:00,
2013-07-05 01:15:00,77.0,32.0,30.60,WSW,247,11.0,11.0,10,0.00,BC,SCT,0.00,Misterhouse,2013-07-05 08:15:00,
2013-07-05 01:20:00,76.6,32.0,30.60,South,188,8.0,11.0,10,0.00,BC,SCT,0.00,Misterhouse,2013-07-05 08:20:00,
2013-07-05 01:25:00,77.0,32.0,30.60,SSW,195,10.0,10.0,10,0.00,BC,SCT,0.00,Misterhouse,2013-07-05 08:25:00,
2013-07-05 01:40:00,77.9,32.0,30.60,South,184,11.0,11.0,10,0.00,BC,SCT,0.00,Misterhouse,2013-07-05 08:40:00,
2013-07-05 01:45:00,77.9,32.0,30.60,SW,223,8.0,8.0,10,0.00,BC,SCT,0.00,Misterhouse,2013-07-05 08:45:00,
2013-07-05 01:50:00,77.5,32.0,30.60,SW,218,10.0,15.0,10,0.00,BC,SCT,0.00,Misterhouse,2013-07-05 08:50:00,
2013-07-05 01:55:00,78.3,32.0,30.60,SSW,194,8.0,11.0,10,0.00,BC,SCT,0.00,Misterhouse,2013-07-05 08:55:00,
2013-07-05 02:05:00,78.4,32.0,30.60,SSW,196,8.0,8.0,10,0.00,BC,SCT,0.00,Misterhouse,2013-07-05 09:05:00,
2013-07-05 02:10:00,78.1,32.0,30.60,South,178,11.0,11.0,10,0.00,BC,SCT,0.00,Misterhouse,2013-07-05 09:10:00,
2013-07-05 02:20:00,77.9,32.0,30.60,SSW,199,9.0,11.0,10,0.00,BC,SCT,0.00,Misterhouse,2013-07-05 09:20:00,
2013-07-05 02:25:00,78.3,32.0,30.60,SSW,203,11.0,13.0,10,0.00,BC,SCT,0.00,Misterhouse,2013-07-05 09:25:00,
2013-07-05 02:30:00,78.6,32.0,30.60,South,183,10.0,11.0,10,0.00,BC,SCT,0.00,Misterhouse,2013-07-05 09:30:00,
2013-07-05 02:45:00,78.4,32.0,30.60,South,175,9.0,11.0,10,0.00,BC,SCT,0.00,Misterhouse,2013-07-05 09:45:00,
2013-07-05 02:50:00,78.4,32.0,30.60,SSW,201,8.0,8.0,10,0.00,BC,SCT,0.00,Misterhouse,2013-07-05 09:50:00,
2013-07-05 02:55:00,78.4,32.0,30.60,South,191,9.0,15.0,10,0.00,BC,SCT,0.00,Misterhouse,2013-07-05 09:55:00,
2013-07-05 03:00:00,78.6,32.0,30.60,South,170,9.0,11.0,10,0.00,BC,SCT,0.00,Misterhouse,2013-07-05 10:00:00,
2013-07-05 03:05:00,78.6,32.0,30.60,South,178,9.0,9.0,10,0.00,BC,SCT,0.00,Misterhouse,2013-07-05 10:05:00,
2013-07-05 03:10:00,78.4,32.0,30.60,SSW,200,7.0,10.0,10,0.00,BC,SCT,0.00,Misterhouse,2013-07-05 10:10:00,
2013-07-05 03:15:00,78.4,32.0,30.60,South,187,9.0,9.0,10,0.00,BC,SCT,0.00,Misterhouse,2013-07-05 10:15:00,
2013-07-05 03:20:00,78.8,32.0,30.60,South,189,8.0,8.0,10,0.00,BC,SCT,0.00,Misterhouse,2013-07-05 10:20:00,
2013-07-05 03:30:00,79.0,32.0,30.60,South,170,8.0,9.0,10,0.00,BC,SCT,0.00,Misterhouse,2013-07-05 10:30:00,
2013-07-05 03:55:00,78.8,32.0,30.60,SSW,207,7.0,11.0,10,0.00,BC,SCT,0.00,Misterhouse,2013-07-05 10:55:00,
2013-07-05 04:00:00,78.8,32.0,30.60,SSE,161,9.0,9.0,10,0.00,BC,SCT,0.00,Misterhouse,2013-07-05 11:00:00,
2013-07-05 04:15:00,79.2,32.0,30.60,SW,214,9.0,9.0,10,0.00,BC,SCT,0.00,Misterhouse,2013-07-05 11:15:00,
2013-07-05 04:25:00,79.3,32.0,30.60,SW,216,10.0,10.0,10,0.00,BC,SCT,0.00,Misterhouse,2013-07-05 11:25:00,
2013-07-05 04:30:00,79.3,32.0,30.60,SSE,165,8.0,8.0,10,0.00,BC,SCT,0.00,Misterhouse,2013-07-05 11:30:00,
2013-07-05 04:38:00,79.0,32.0,30.60,SSW,199,8.0,9.0,10,0.00,BC,SCT,0.00,Misterhouse,2013-07-05 11:38:00,
2013-07-05 04:40:00,79.2,32.0,30.60,South,176,10.0,10.0,10,0.00,BC,SCT,0.00,Misterhouse,2013-07-05 11:40:00,
2013-07-05 04:48:00,79.0,32.0,30.60,SSW,201,9.0,9.0,10,0.00,BC,SCT,0.00,Misterhouse,2013-07-05 11:48:00,
2013-07-05 05:10:00,79.0,32.0,30.60,SSW,207,8.0,11.0,10,0.00,BC,SCT,0.00,Misterhouse,2013-07-05 12:10:00,
2013-07-05 05:13:00,79.0,32.0,30.60,SSW,203,10.0,10.0,10,0.00,BC,SCT,0.00,Misterhouse,2013-07-05 12:13:00,
2013-07-05 05:20:00,79.2,32.0,30.60,South,188,10.0,10.0,10,0.00,BC,SCT,0.00,Misterhouse,2013-07-05 12:20:00,
2013-07-05 05:23:00,79.2,32.0,30.60,SW,222,10.0,11.0,10,0.00,BC,SCT,0.00,Misterhouse,2013-07-05 12:23:00,
2013-07-05 05:38:00,79.2,32.0,30.60,South,186,10.0,10.0,10,0.00,BC,SCT,0.00,Misterhouse,2013-07-05 12:38:00,
2013-07-05 05:58:00,79.3,32.0,30.60,SW,215,9.0,10.0,10,0.00,BC,SCT,0.00,Misterhouse,2013-07-05 12:58:00,
2013-07-05 06:03:00,79.2,32.0,30.60,SSW,199,8.0,8.0,10,0.00,BC,SCT,0.00,Misterhouse,2013-07-05 13:03:00,
2013-07-05 06:18:00,79.0,32.0,30.60,SW,221,9.0,12.0,10,0.00,BC,SCT,0.00,Misterhouse,2013-07-05 13:18:00,
2013-07-05 06:28:00,79.3,32.0,30.60,South,181,10.0,10.0,10,0.00,BC,SCT,0.00,Misterhouse,2013-07-05 13:28:00,
2013-07-05 06:33:00,79.9,32.0,30.60,SSW,194,11.0,11.0,10,0.00,BC,SCT,0.00,Misterhouse,2013-07-05 13:33:00,
2013-07-05 06:43:00,80.4,32.0,30.60,SSW,199,12.0,12.0,10,0.00,BC,SCT,0.00,Misterhouse,2013-07-05 13:43:00,
2013-07-05 06:45:00,80.4,32.0,30.60,SSW,200,14.0,14.0,10,0.00,BC,SCT,0.00,Misterhouse,2013-07-05 13:45:00,
2013-07-05 06:53:00,81.0,32.0,30.60,SSE,165,11.0,11.0,9,0.00,BC,SCT,0.00,Misterhouse,2013-07-05 13:53:00,
2013-07-05 06:58:00,81.3,32.0,30.60,SSW,206,10.0,11.0,9,0.00,BC,SCT,0.00,Misterhouse,2013-07-05 13:58:00,
2013-07-05 07:08:00,81.3,32.0,30.60,South,176,11.0,11.0,9,0.00,BC,SCT,0.00,Misterhouse,2013-07-05 14:08:00,
2013-07-05 07:13:00,81.5,32.0,30.60,SSW,209,11.0,11.0,9,0.00,BC,SCT,0.00,Misterhouse,2013-07-05 14:13:00,
2013-07-05 07:18:00,81.7,32.0,30.60,SSW,203,10.0,13.0,9,0.00,BC,SCT,0.00,Misterhouse,2013-07-05 14:18:00,
2013-07-05 07:28:00,81.1,32.0,30.60,SSW,192,8.0,9.0,9,0.00,BC,SCT,0.00,Misterhouse,2013-07-05 14:28:00,
2013-07-05 07:33:00,81.1,32.0,30.60,South,188,11.0,13.0,9,0.00,BC,SCT,0.00,Misterhouse,2013-07-05 14:33:00,
2013-07-05 07:43:00,80.6,32.0,30.60,South,180,12.0,12.0,9,0.00,BC,SCT,0.00,Misterhouse,2013-07-05 14:43:00,
2013-07-05 07:53:00,80.2,32.0,30.60,South,190,12.0,13.0,10,0.00,BC,SCT,0.00,Misterhouse,2013-07-05 14:53:00,
2013-07-05 07:58:00,80.8,32.0,30.60,South,174,17.0,17.0,9,0.00,BC,SCT,0.00,Misterhouse,2013-07-05 14:58:00,
2013-07-05 08:08:00,80.4,32.0,30.60,SSE,150,15.0,15.0,10,0.00,BC,SCT,0.00,Misterhouse,2013-07-05 15:08:00,
2013-07-05 08:13:00,79.2,32.0,30.60,SSW,192,14.0,14.0,10,0.00,BC,SCT,0.00,Misterhouse,2013-07-05 15:13:00,
2013-07-05 08:15:00,77.5,32.0,30.63,SSE,151,16.0,16.0,10,0.00,BC,SCT,0.00,Misterhouse,2013-07-05 15:15:00,
2013-07-05 08:18:00,79.0,32.0,30.63,South,179,14.0,14.0,10,0.00,BC,SCT,0.00,Misterhouse,2013-07-05 15:18:00,
2013-07-05 08:23:00,78.8,32.0,30.63,South,172,12.0,15.0,10,0.00,BC,SCT,0.00,Misterhouse,2013-07-05 15:23:00,
2013-07-05 08:28:00,78.4,32.0,30.63,SSE,156,16.0,16.0,10,0.00,BC,SCT,0.00,Misterhouse,2013-07-05 15:28:00,
2013-07-05 08:33:00,78.6,32.0,30.63,South,171,14.0,17.0,10,0.00,BC,SCT,0.00,Misterhouse,2013-07-05 15:33:00,
2013-07-05 08:38:00,77.9,32.0,30.63,South,186,17.0,17.0,10,0.00,BC,SCT,0.00,Misterhouse,2013-07-05 15:38:00,
2013-07-05 08:48:00,77.7,32.0,30.63,South,174,16.0,16.0,10,0.00,BC,SCT,0.00,Misterhouse,2013-07-05 15:48:00,
2013-07-05 08:53:00,77.4,32.0,30.63,SSE,159,17.0,17.0,10,0.00,BC,SCT,0.00,Misterhouse,2013-07-05 15:53:00,
2013-07-05 08:58:00,77.0,32.0,30.63,South,171,17.0,17.0,10,0.00,BC,SCT,0.00,Misterhouse,2013-07-05 15:58:00,
2013-07-05 09:03:00,76.8,32.0,30.63,South,172,16.0,21.0,10,0.00,BC,SCT,0.00,Misterhouse,2013-07-05 16:03:00,
2013-07-05 09:10:00,82.4,32.0,30.63,South,189,13.0,17.0,9,0.00,BC,SCT,0.00,Misterhouse,2013-07-05 16:10:00,
2013-07-05 09:13:00,77.4,32.0,30.63,South,188,17.0,20.0,10,0.00,BC,SCT,0.00,Misterhouse,2013-07-05 16:13:00,
2013-07-05 09:23:00,77.5,32.0,30.63,SSW,195,17.0,20.0,10,0.00,BC,SCT,0.00,Misterhouse,2013-07-05 16:23:00,
2013-07-05 09:28:00,78.3,32.0,30.63,South,180,17.0,17.0,10,0.00,BC,SCT,0.00,Misterhouse,2013-07-05 16:28:00,
2013-07-05 09:33:00,79.3,32.0,30.63,SSE,157,15.0,15.0,10,0.00,BC,SCT,0.00,Misterhouse,2013-07-05 16:33:00,
2013-07-05 09:38:00,79.9,32.0,30.63,South,184,15.0,16.0,10,0.00,BC,SCT,0.00,Misterhouse,2013-07-05 16:38:00,
2013-07-05 09:43:00,79.7,32.0,30.63,South,184,14.0,14.0,10,0.00,BC,SCT,0.00,Misterhouse,2013-07-05 16:43:00,
2013-07-05 09:45:00,80.4,32.0,30.63,SSW,204,13.0,17.0,10,0.00,BC,SCT,0.00,Misterhouse,2013-07-05 16:45:00,
2013-07-05 09:48:00,79.7,32.0,30.63,South,191,15.0,21.0,10,0.00,BC,SCT,0.00,Misterhouse,2013-07-05 16:48:00,
2013-07-05 09:53:00,81.0,32.0,30.63,SSE,156,14.0,14.0,9,0.00,BC,SCT,0.00,Misterhouse,2013-07-05 16:53:00,
2013-07-05 09:58:00,82.0,32.0,30.63,SSE,159,11.0,13.0,9,0.00,BC,SCT,0.00,Misterhouse,2013-07-05 16:58:00,
2013-07-05 10:03:00,82.9,32.0,30.63,South,186,12.0,12.0,9,0.00,BC,SCT,0.00,Misterhouse,2013-07-05 17:03:00,
2013-07-05 10:18:00,81.5,32.0,30.63,SSE,154,12.0,12.0,9,0.00,BC,SCT,0.00,Misterhouse,2013-07-05 17:18:00,
2013-07-05 10:23:00,81.7,32.0,30.63,South,181,11.0,11.0,9,0.00,BC,SCT,0.00,Misterhouse,2013-07-05 17:23:00,
2013-07-05 10:25:00,85.5,32.0,30.63,South,185,11.0,12.0,8,0.00,BC,SCT,0.00,Misterhouse,2013-07-05 17:25:00,
2013-07-05 10:28:00,81.3,32.0,30.63,South,172,12.0,12.0,9,0.00,BC,SCT,0.00,Misterhouse,2013-07-05 17:28:00,
2013-07-05 10:33:00,81.0,32.0,30.63,South,182,13.0,13.0,9,0.00,BC,SCT,0.00,Misterhouse,2013-07-05 17:33:00,
2013-07-05 10:38:00,81.0,32.0,30.63,South,184,12.0,12.0,9,0.00,BC,SCT,0.00,Misterhouse,2013-07-05 17:38:00,
2013-07-05 10:43:00,80.8,32.0,30.63,South,179,13.0,17.0,9,0.00,BC,SCT,0.00,Misterhouse,2013-07-05 17:43:00,
2013-07-05 10:45:00,87.1,32.0,30.63,South,175,9.0,14.0,8,0.00,BC,SCT,0.00,Misterhouse,2013-07-05 17:45:00,
2013-07-05 10:53:00,81.0,32.0,30.63,South,169,13.0,15.0,9,0.00,BC,SCT,0.00,Misterhouse,2013-07-05 17:53:00,
2013-07-05 10:58:00,81.3,32.0,30.63,SE,130,12.0,12.0,9,0.00,BC,SCT,0.00,Misterhouse,2013-07-05 17:58:00,
2013-07-05 11:03:00,83.3,32.0,30.63,SSE,149,13.0,13.0,9,0.00,BC,SCT,0.00,Misterhouse,2013-07-05 18:03:00,
2013-07-05 11:08:00,84.4,32.0,30.63,SSW,199,9.0,13.0,8,0.00,BC,SCT,0.00,Misterhouse,2013-07-05 18:08:00,
2013-07-05 11:13:00,84.7,32.0,30.63,South,181,10.0,11.0,8,0.00,BC,SCT,0.00,Misterhouse,2013-07-05 18:13:00,
2013-07-05 11:18:00,85.1,32.0,30.63,SSE,155,11.0,11.0,8,0.00,BC,SCT,0.00,Misterhouse,2013-07-05 18:18:00,
2013-07-05 11:23:00,84.9,32.0,30.63,SSE,162,11.0,11.0,8,0.00,BC,SCT,0.00,Misterhouse,2013-07-05 18:23:00,
2013-07-05 11:33:00,85.8,32.0,30.63,SE,140,9.0,15.0,8,0.00,BC,SCT,0.00,Misterhouse,2013-07-05 18:33:00,
2013-07-05 11:38:00,85.8,32.0,30.63,SSE,152,11.0,11.0,8,0.00,BC,SCT,0.00,Misterhouse,2013-07-05 18:38:00,
2013-07-05 11:40:00,87.3,32.0,30.63,SSW,196,13.0,15.0,8,0.00,BC,SCT,0.00,Misterhouse,2013-07-05 18:40:00,
2013-07-05 11:43:00,85.6,32.0,30.63,South,183,9.0,13.0,8,0.00,BC,SCT,0.00,Misterhouse,2013-07-05 18:43:00,
2013-07-05 11:53:00,86.7,32.0,30.63,South,174,8.0,19.0,8,0.00,BC,SCT,0.00,Misterhouse,2013-07-05 18:53:00,
2013-07-05 11:55:00,86.0,32.0,30.63,SSE,150,13.0,13.0,8,0.00,BC,SCT,0.00,Misterhouse,2013-07-05 18:55:00,
2013-07-05 11:58:00,86.4,32.0,30.63,SE,137,12.0,12.0,8,0.00,BC,SCT,0.00,Misterhouse,2013-07-05 18:58:00,
2013-07-05 12:03:00,86.2,32.0,30.63,South,187,10.0,10.0,8,0.00,BC,SCT,0.00,Misterhouse,2013-07-05 19:03:00,
2013-07-05 12:13:00,86.5,32.0,30.63,South,180,11.0,11.0,8,0.00,BC,SCT,0.00,Misterhouse,2013-07-05 19:13:00,
2013-07-05 12:18:00,87.1,32.0,30.63,SSE,168,15.0,15.0,8,0.00,BC,SCT,0.00,Misterhouse,2013-07-05 19:18:00,
2013-07-05 12:23:00,87.3,32.0,30.63,SSE,159,9.0,13.0,8,0.00,BC,SCT,0.00,Misterhouse,2013-07-05 19:23:00,
2013-07-05 12:25:00,87.6,32.0,30.63,SW,220,11.0,13.0,8,0.00,BC,SCT,0.00,Misterhouse,2013-07-05 19:25:00,
2013-07-05 12:28:00,86.9,32.0,30.63,SSW,196,14.0,14.0,8,0.00,BC,SCT,0.00,Misterhouse,2013-07-05 19:28:00,
2013-07-05 12:30:00,86.9,32.0,30.63,South,181,9.0,11.0,8,0.00,BC,SCT,0.00,Misterhouse,2013-07-05 19:30:00,
2013-07-05 12:33:00,87.6,32.0,30.63,SW,219,9.0,9.0,8,0.00,BC,SCT,0.00,Misterhouse,2013-07-05 19:33:00,
2013-07-05 12:38:00,88.7,32.0,30.63,SW,220,10.0,18.0,8,0.00,BC,SCT,0.00,Misterhouse,2013-07-05 19:38:00,
2013-07-05 12:45:00,87.6,32.0,30.63,SW,214,12.0,13.0,8,0.00,BC,SCT,0.00,Misterhouse,2013-07-05 19:45:00,
2013-07-05 12:48:00,85.8,32.0,30.63,SSE,162,11.0,11.0,8,0.00,BC,SCT,0.00,Misterhouse,2013-07-05 19:48:00,
2013-07-05 12:50:00,87.3,32.0,30.63,SSW,192,11.0,11.0,8,0.00,BC,SCT,0.00,Misterhouse,2013-07-05 19:50:00,
2013-07-05 12:53:00,86.4,32.0,30.63,South,173,14.0,16.0,8,0.00,BC,SCT,0.00,Misterhouse,2013-07-05 19:53:00,
2013-07-05 13:03:00,86.4,32.0,30.63,SSW,197,13.0,13.0,8,0.00,BC,SCT,0.00,Misterhouse,2013-07-05 20:03:00,
2013-07-05 13:05:00,87.6,32.0,30.63,South,170,13.0,13.0,8,0.00,BC,SCT,0.00,Misterhouse,2013-07-05 20:05:00,
2013-07-05 13:08:00,88.2,32.0,30.63,South,178,14.0,14.0,8,0.00,BC,SCT,0.00,Misterhouse,2013-07-05 20:08:00,
2013-07-05 13:13:00,87.1,32.0,30.63,SSE,168,14.0,17.0,8,0.00,BC,SCT,0.00,Misterhouse,2013-07-05 20:13:00,
2013-07-05 13:18:00,87.6,32.0,30.63,South,188,10.0,11.0,8,0.00,BC,SCT,0.00,Misterhouse,2013-07-05 20:18:00,
2013-07-05 13:23:00,87.8,32.0,30.63,SSE,167,12.0,12.0,8,0.00,BC,SCT,0.00,Misterhouse,2013-07-05 20:23:00,
2013-07-05 13:38:00,87.3,32.0,30.63,SSE,156,13.0,16.0,8,0.00,BC,SCT,0.00,Misterhouse,2013-07-05 20:38:00,
2013-07-05 13:43:00,88.2,32.0,30.63,SSE,159,9.0,11.0,8,0.00,BC,SCT,0.00,Misterhouse,2013-07-05 20:43:00,
2013-07-05 13:58:00,87.3,32.0,30.63,South,184,10.0,10.0,8,0.00,BC,SCT,0.00,Misterhouse,2013-07-05 20:58:00,
2013-07-05 14:00:00,84.9,32.0,30.60,SSW,203,12.0,13.0,8,0.00,BC,SCT,0.00,Misterhouse,2013-07-05 21:00:00,
2013-07-05 14:03:00,87.3,32.0,30.63,SSE,166,14.0,20.0,8,0.00,BC,SCT,0.00,Misterhouse,2013-07-05 21:03:00,
2013-07-05 14:10:00,84.9,32.0,30.60,SSW,193,13.0,13.0,8,0.00,BC,SCT,0.00,Misterhouse,2013-07-05 21:10:00,
2013-07-05 14:13:00,86.4,32.0,30.63,SSW,210,11.0,16.0,8,0.00,BC,SCT,0.00,Misterhouse,2013-07-05 21:13:00,
2013-07-05 14:18:00,87.1,32.0,30.63,SSW,194,15.0,15.0,8,0.00,BC,SCT,0.00,Misterhouse,2013-07-05 21:18:00,
2013-07-05 14:23:00,86.2,32.0,30.63,WSW,245,14.0,14.0,8,0.00,BC,SCT,0.00,Misterhouse,2013-07-05 21:23:00,
2013-07-05 14:28:00,85.3,32.0,30.63,SSW,212,11.0,16.0,8,0.00,BC,SCT,0.00,Misterhouse,2013-07-05 21:28:00,
2013-07-05 14:33:00,84.2,32.0,30.63,SE,129,16.0,16.0,8,0.00,BC,SCT,0.00,Misterhouse,2013-07-05 21:33:00,
2013-07-05 14:38:00,83.8,32.0,30.63,South,189,12.0,15.0,9,0.00,BC,SCT,0.00,Misterhouse,2013-07-05 21:38:00,
2013-07-05 14:40:00,84.2,32.0,30.60,South,169,13.0,15.0,8,0.00,BC,SCT,0.00,Misterhouse,2013-07-05 21:40:00,
2013-07-05 14:43:00,83.5,32.0,30.63,South,179,11.0,20.0,9,0.00,BC,SCT,0.00,Misterhouse,2013-07-05 21:43:00,
2013-07-05 14:48:00,83.5,32.0,30.63,SSE,154,14.0,14.0,9,0.00,BC,SCT,0.00,Misterhouse,2013-07-05 21:48:00,
2013-07-05 14:53:00,84.7,32.0,30.63,SSW,199,12.0,13.0,8,0.00,BC,SCT,0.00,Misterhouse,2013-07-05 21:53:00,
2013-07-05 14:58:00,85.6,32.0,30.63,South,186,14.0,14.0,8,0.00,BC,SCT,0.00,Misterhouse,2013-07-05 21:58:00,
2013-07-05 15:00:00,82.8,32.0,30.60,SSE,161,14.0,14.0,9,0.00,BC,SCT,0.00,Misterhouse,2013-07-05 22:00:00,
2013-07-05 15:08:00,84.2,32.0,30.60,South,190,13.0,15.0,8,0.00,BC,SCT,0.00,Misterhouse,2013-07-05 22:08:00,
2013-07-05 15:10:00,83.3,32.0,30.60,South,186,13.0,15.0,9,0.00,BC,SCT,0.00,Misterhouse,2013-07-05 22:10:00,
2013-07-05 15:18:00,85.3,32.0,30.60,SSW,202,9.0,9.0,8,0.00,BC,SCT,0.00,Misterhouse,2013-07-05 22:18:00,
2013-07-05 15:23:00,85.8,32.0,30.60,SSE,163,8.0,10.0,8,0.00,BC,SCT,0.00,Misterhouse,2013-07-05 22:23:00,
2013-07-05 15:25:00,83.8,32.0,30.60,South,188,13.0,14.0,9,0.00,BC,SCT,0.00,Misterhouse,2013-07-05 22:25:00,
2013-07-05 15:28:00,85.5,32.0,30.60,SW,236,10.0,12.0,8,0.00,BC,SCT,0.00,Misterhouse,2013-07-05 22:28:00,
2013-07-05 15:30:00,84.2,32.0,30.60,SSE,167,17.0,17.0,8,0.00,BC,SCT,0.00,Misterhouse,2013-07-05 22:30:00,
2013-07-05 15:33:00,84.9,32.0,30.60,SSW,198,8.0,9.0,8,0.00,BC,SCT,0.00,Misterhouse,2013-07-05 22:33:00,
2013-07-05 15:38:00,84.7,32.0,30.60,SSW,202,14.0,14.0,8,0.00,BC,SCT,0.00,Misterhouse,2013-07-05 22:38:00,
2013-07-05 15:48:00,83.8,32.0,30.60,South,180,9.0,11.0,9,0.00,BC,SCT,0.00,Misterhouse,2013-07-05 22:48:00,
2013-07-05 15:53:00,83.8,32.0,30.60,SSW,192,15.0,15.0,9,0.00,BC,SCT,0.00,Misterhouse,2013-07-05 22:53:00,
2013-07-05 15:55:00,84.0,32.0,30.60,South,174,13.0,13.0,9,0.00,BC,SCT,0.00,Misterhouse,2013-07-05 22:55:00,
2013-07-05 15:58:00,83.1,32.0,30.60,SSW,208,11.0,17.0,9,0.00,BC,SCT,0.00,Misterhouse,2013-07-05 22:58:00,
2013-07-05 16:08:00,82.9,32.0,30.60,SSE,161,11.0,13.0,9,0.00,BC,SCT,0.00,Misterhouse,2013-07-05 23:08:00,
2013-07-05 16:18:00,83.3,32.0,30.60,SSE,156,12.0,12.0,9,0.00,BC,SCT,0.00,Misterhouse,2013-07-05 23:18:00,
2013-07-05 16:23:00,84.0,32.0,30.60,SSW,196,11.0,15.0,9,0.00,BC,SCT,0.00,Misterhouse,2013-07-05 23:23:00,
2013-07-05 16:38:00,84.2,32.0,30.60,SSW,207,14.0,18.0,8,0.00,BC,SCT,0.00,Misterhouse,2013-07-05 23:38:00,
2013-07-05 16:43:00,84.0,32.0,30.60,SSW,210,14.0,15.0,9,0.00,BC,SCT,0.00,Misterhouse,2013-07-05 23:43:00,
2013-07-05 16:48:00,84.2,32.0,30.60,South,180,12.0,12.0,8,0.00,BC,SCT,0.00,Misterhouse,2013-07-05 23:48:00,
2013-07-05 16:53:00,83.8,32.0,30.60,SSW,198,16.0,23.0,9,0.00,BC,SCT,0.00,Misterhouse,2013-07-05 23:53:00,
2013-07-05 17:03:00,84.2,32.0,30.58,SSW,211,14.0,17.0,8,0.00,RA,OVC,0.00,Misterhouse,2013-07-06 00:03:00,
2013-07-05 17:08:00,83.5,32.0,30.58,SW,227,15.0,15.0,9,0.00,RA,OVC,0.00,Misterhouse,2013-07-06 00:08:00,
2013-07-05 17:13:00,83.8,32.0,30.58,SSW,195,12.0,13.0,9,0.00,RA,OVC,0.00,Misterhouse,2013-07-06 00:13:00,
2013-07-05 17:18:00,83.5,32.0,30.58,SSE,168,14.0,14.0,9,0.00,RA,OVC,0.00,Misterhouse,2013-07-06 00:18:00,
2013-07-05 17:23:00,83.1,32.0,30.58,SSE,163,14.0,14.0,9,0.00,RA,OVC,0.00,Misterhouse,2013-07-06 00:23:00,
2013-07-05 17:33:00,82.8,32.0,30.58,South,172,15.0,15.0,9,0.00,RA,OVC,0.00,Misterhouse,2013-07-06 00:33:00,
2013-07-05 17:38:00,82.9,32.0,30.58,SSE,155,15.0,15.0,9,0.00,RA,OVC,0.00,Misterhouse,2013-07-06 00:38:00,
2013-07-05 17:43:00,82.9,32.0,30.58,SSE,153,14.0,14.0,9,0.00,RA,OVC,0.00,Misterhouse,2013-07-06 00:43:00,
2013-07-05 17:48:00,82.8,32.0,30.58,SSW,199,13.0,14.0,9,0.00,RA,OVC,0.00,Misterhouse,2013-07-06 00:48:00,
2013-07-05 17:53:00,82.8,32.0,30.58,SSW,204,13.0,13.0,9,0.00,RA,OVC,0.00,Misterhouse,2013-07-06 00:53:00,
2013-07-05 17:58:00,82.6,32.0,30.58,South,186,12.0,12.0,9,0.00,RA,OVC,0.00,Misterhouse,2013-07-06 00:58:00,
2013-07-05 18:03:00,82.2,32.0,30.58,SSW,199,11.0,11.0,9,0.00,RA,OVC,0.00,Misterhouse,2013-07-06 01:03:00,
2013-07-05 18:08:00,81.5,32.0,30.58,South,174,14.0,17.0,9,0.00,RA,OVC,0.00,Misterhouse,2013-07-06 01:08:00,
2013-07-05 18:13:00,81.3,32.0,30.58,SSE,164,13.0,13.0,9,0.00,RA,OVC,0.00,Misterhouse,2013-07-06 01:13:00,
2013-07-05 18:18:00,81.3,32.0,30.58,SSW,198,15.0,15.0,9,0.00,RA,OVC,0.00,Misterhouse,2013-07-06 01:18:00,
2013-07-05 18:23:00,81.5,32.0,30.58,SSW,198,15.0,15.0,9,0.00,RA,OVC,0.00,Misterhouse,2013-07-06 01:23:00,
2013-07-05 18:28:00,80.6,32.0,30.58,South,181,13.0,14.0,9,0.00,RA,OVC,0.00,Misterhouse,2013-07-06 01:28:00,
2013-07-05 18:33:00,80.1,32.0,30.58,SE,139,15.0,15.0,10,0.00,RA,OVC,0.00,Misterhouse,2013-07-06 01:33:00,
2013-07-05 18:38:00,79.5,32.0,30.58,South,176,16.0,16.0,10,0.00,RA,OVC,0.00,Misterhouse,2013-07-06 01:38:00,
2013-07-05 18:43:00,79.3,32.0,30.58,South,176,15.0,15.0,10,0.00,RA,OVC,0.00,Misterhouse,2013-07-06 01:43:00,
2013-07-05 18:48:00,79.2,32.0,30.58,SSE,162,15.0,15.0,10,0.00,RA,OVC,0.00,Misterhouse,2013-07-06 01:48:00,
2013-07-05 18:53:00,78.6,32.0,30.58,SSW,197,16.0,16.0,10,0.00,RA,OVC,0.00,Misterhouse,2013-07-06 01:53:00,
2013-07-05 18:58:00,78.3,32.0,30.58,SE,146,15.0,20.0,10,0.00,RA,OVC,0.00,Misterhouse,2013-07-06 01:58:00,
2013-07-05 19:03:00,78.1,32.0,30.60,SSE,163,13.0,15.0,10,0.00,RA,OVC,0.00,Misterhouse,2013-07-06 02:03:00,
2013-07-05 19:13:00,77.4,32.0,30.60,South,170,16.0,18.0,10,0.00,RA,OVC,0.00,Misterhouse,2013-07-06 02:13:00,
2013-07-05 19:18:00,77.2,32.0,30.58,South,188,16.0,20.0,10,0.00,RA,OVC,0.00,Misterhouse,2013-07-06 02:18:00,
2013-07-05 19:23:00,77.0,32.0,30.58,SSE,158,15.0,19.0,10,0.00,RA,OVC,0.00,Misterhouse,2013-07-06 02:23:00,
2013-07-05 19:28:00,76.8,32.0,30.58,South,181,17.0,19.0,10,0.00,RA,OVC,0.00,Misterhouse,2013-07-06 02:28:00,
2013-07-05 19:33:00,76.5,32.0,30.60,South,182,17.0,17.0,10,0.00,RA,OVC,0.00,Misterhouse,2013-07-06 02:33:00,
2013-07-05 19:38:00,76.3,32.0,30.60,South,170,16.0,16.0,10,0.00,RA,OVC,0.00,Misterhouse,2013-07-06 02:38:00,
2013-07-05 19:43:00,75.9,32.0,30.60,South,182,14.0,15.0,10,0.00,RA,OVC,0.00,Misterhouse,2013-07-06 02:43:00,
2013-07-05 19:48:00,75.7,32.0,30.60,SE,145,11.0,13.0,10,0.00,RA,OVC,0.00,Misterhouse,2013-07-06 02:48:00,
2013-07-05 19:53:00,75.4,32.0,30.60,SW,221,12.0,12.0,10,0.00,RA,OVC,0.00,Misterhouse,2013-07-06 02:53:00,
2013-07-05 19:58:00,75.2,32.0,30.60,South,169,7.0,7.0,10,0.00,RA,OVC,0.00,Misterhouse,2013-07-06 02:58:00,
2013-07-05 20:00:00,75.6,32.0,30.60,SSW,200,10.0,15.0,10,0.00,RA,OVC,0.00,Misterhouse,2013-07-06 03:00:00,
2013-07-05 20:03:00,74.7,32.0,30.60,SW,234,5.0,5.0,11,0.00,RA,OVC,0.00,Misterhouse,2013-07-06 03:03:00,
2013-07-05 20:05:00,75.6,32.0,30.60,South,190,14.0,14.0,10,0.00,RA,OVC,0.00,Misterhouse,2013-07-06 03:05:00,
2013-07-05 20:08:00,74.5,32.0,30.60,WSW,243,7.0,8.0,11,0.00,RA,OVC,0.00,Misterhouse,2013-07-06 03:08:00,
2013-07-05 20:10:00,75.6,32.0,30.60,South,174,14.0,15.0,10,0.00,RA,OVC,0.00,Misterhouse,2013-07-06 03:10:00,
2013-07-05 20:13:00,73.9,32.0,30.60,WSW,258,6.0,6.0,11,0.00,RA,OVC,0.00,Misterhouse,2013-07-06 03:13:00,
2013-07-05 20:15:00,75.6,32.0,30.60,SE,145,12.0,12.0,10,0.00,RA,OVC,0.00,Misterhouse,2013-07-06 03:15:00,
2013-07-05 20:18:00,73.4,32.0,30.60,WNW,283,7.0,8.0,11,0.00,RA,OVC,0.00,Misterhouse,2013-07-06 03:18:00,
2013-07-05 20:20:00,75.4,32.0,30.60,SSW,207,15.0,15.0,10,0.00,RA,OVC,0.00,Misterhouse,2013-07-06 03:20:00,
2013-07-05 20:23:00,73.4,32.0,30.60,SSW,192,9.0,11.0,11,0.00,RA,OVC,0.00,Misterhouse,2013-07-06 03:23:00,
2013-07-05 20:25:00,75.4,32.0,30.60,South,175,14.0,14.0,10,0.00,RA,OVC,0.00,Misterhouse,2013-07-06 03:25:00,
2013-07-05 20:28:00,73.2,32.0,30.60,WSW,240,8.0,13.0,11,0.00,RA,OVC,0.00,Misterhouse,2013-07-06 03:28:00,
2013-07-05 20:30:00,75.0,32.0,30.63,South,191,11.0,11.0,11,0.00,BC,SCT,0.00,Misterhouse,2013-07-06 03:30:00,
2013-07-05 20:33:00,73.4,32.0,30.60,SW,232,10.0,10.0,11,0.00,RA,OVC,0.00,Misterhouse,2013-07-06 03:33:00,
2013-07-05 20:35:00,75.0,32.0,30.63,South,180,9.0,9.0,11,0.00,BC,SCT,0.00,Misterhouse,2013-07-06 03:35:00,
2013-07-05 20:38:00,73.8,32.0,30.60,South,182,12.0,12.0,11,0.00,RA,OVC,0.00,Misterhouse,2013-07-06 03:38:00,
2013-07-05 20:40:00,74.8,32.0,30.63,SE,139,13.0,13.0,11,0.00,BC,SCT,0.00,Misterhouse,2013-07-06 03:40:00,
2013-07-05 20:43:00,73.9,32.0,30.60,SSW,206,14.0,22.0,11,0.00,RA,OVC,0.00,Misterhouse,2013-07-06 03:43:00,
2013-07-05 20:45:00,74.8,32.0,30.63,SSE,165,11.0,11.0,11,0.00,BC,SCT,0.00,Misterhouse,2013-07-06 03:45:00,
2013-07-05 20:48:00,74.7,32.0,30.60,South,182,11.0,15.0,11,0.00,RA,OVC,0.00,Misterhouse,2013-07-06 03:48:00,
2013-07-05 20:50:00,74.8,32.0,30.63,South,187,10.0,10.0,11,0.00,BC,SCT,0.00,Misterhouse,2013-07-06 03:50:00,
2013-07-05 20:53:00,75.0,32.0,30.60,SSE,152,10.0,11.0,11,0.00,RA,OVC,0.00,Misterhouse,2013-07-06 03:53:00,
2013-07-05 20:55:00,74.8,32.0,30.63,SSE,165,12.0,12.0,11,0.00,BC,SCT,0.00,Misterhouse,2013-07-06 03:55:00,
2013-07-05 20:58:00,75.4,32.0,30.60,SSE,164,10.0,10.0,10,0.00,RA,OVC,0.00,Misterhouse,2013-07-06 03:58:00,
2013-07-05 21:00:00,75.2,32.0,30.63,South,186,12.0,17.0,10,0.00,BC,SCT,0.00,Misterhouse,2013-07-06 04:00:00,
2013-07-05 21:05:00,75.4,32.0,30.63,SSW,199,13.0,13.0,10,0.00,BC,SCT,0.00,Misterhouse,2013-07-06 04:05:00,
2013-07-05 21:10:00,75.6,32.0,30.63,South,169,13.0,17.0,10,0.00,BC,SCT,0.00,Misterhouse,2013-07-06 04:10:00,
2013-07-05 21:15:00,75.6,32.0,30.63,South,176,13.0,13.0,10,0.00,BC,SCT,0.00,Misterhouse,2013-07-06 04:15:00,
2013-07-05 21:20:00,75.4,32.0,30.63,South,191,12.0,18.0,10,0.00,BC,SCT,0.00,Misterhouse,2013-07-06 04:20:00,
2013-07-05 21:25:00,75.6,32.0,30.63,SSW,198,13.0,13.0,10,0.00,BC,SCT,0.00,Misterhouse,2013-07-06 04:25:00,
2013-07-05 21:30:00,75.6,32.0,30.63,SSE,155,15.0,16.0,10,0.00,BC,SCT,0.00,Misterhouse,2013-07-06 04:30:00,
2013-07-05 21:35:00,75.7,32.0,30.63,South,172,14.0,16.0,10,0.00,BC,SCT,0.00,Misterhouse,2013-07-06 04:35:00,
2013-07-05 21:40:00,75.6,32.0,30.63,South,189,15.0,15.0,10,0.00,BC,SCT,0.00,Misterhouse,2013-07-06 04:40:00,
2013-07-05 21:45:00,75.4,32.0,30.63,SSE,166,13.0,15.0,10,0.00,BC,SCT,0.00,Misterhouse,2013-07-06 04:45:00,
2013-07-05 21:50:00,75.6,32.0,30.63,South,173,14.0,17.0,10,0.00,BC,SCT,0.00,Misterhouse,2013-07-06 04:50:00,
2013-07-05 21:55:00,75.7,32.0,30.63,SSE,163,15.0,15.0,10,0.00,BC,SCT,0.00,Misterhouse,2013-07-06 04:55:00,
2013-07-05 22:00:00,75.6,32.0,30.63,SSE,156,14.0,15.0,10,0.00,BC,SCT,0.00,Misterhouse,2013-07-06 05:00:00,
2013-07-05 22:05:00,75.7,32.0,30.63,South,174,16.0,16.0,10,0.00,BC,SCT,0.00,Misterhouse,2013-07-06 05:05:00,
2013-07-05 22:10:00,75.9,32.0,30.63,South,171,14.0,14.0,10,0.00,BC,SCT,0.00,Misterhouse,2013-07-06 05:10:00,
2013-07-05 22:15:00,75.7,32.0,30.63,South,171,13.0,15.0,10,0.00,BC,SCT,0.00,Misterhouse,2013-07-06 05:15:00,
2013-07-05 22:20:00,75.4,32.0,30.63,SSE,163,13.0,13.0,10,0.00,BC,SCT,0.00,Misterhouse,2013-07-06 05:20:00,
2013-07-05 22:25:00,75.4,32.0,30.63,SSE,161,15.0,15.0,10,0.00,BC,SCT,0.00,Misterhouse,2013-07-06 05:25:00,
2013-07-05 22:30:00,75.6,32.0,30.63,South,172,15.0,15.0,10,0.00,BC,SCT,0.00,Misterhouse,2013-07-06 05:30:00,
2013-07-05 22:35:00,75.9,32.0,30.63,SSE,166,14.0,15.0,10,0.00,BC,SCT,0.00,Misterhouse,2013-07-06 05:35:00,
2013-07-05 22:40:00,75.9,32.0,30.63,South,187,12.0,15.0,10,0.00,BC,SCT,0.00,Misterhouse,2013-07-06 05:40:00,
2013-07-05 22:45:00,76.1,32.0,30.63,South,185,11.0,15.0,10,0.00,BC,SCT,0.00,Misterhouse,2013-07-06 05:45:00,
2013-07-05 22:50:00,75.9,32.0,30.63,South,183,13.0,13.0,10,0.00,BC,SCT,0.00,Misterhouse,2013-07-06 05:50:00,
2013-07-05 22:55:00,76.1,32.0,30.63,SSE,168,15.0,15.0,10,0.00,BC,SCT,0.00,Misterhouse,2013-07-06 05:55:00,
2013-07-05 23:00:00,75.9,32.0,30.63,SE,140,13.0,13.0,10,0.00,BC,SCT,0.00,Misterhouse,2013-07-06 06:00:00,
2013-07-05 23:05:00,76.1,32.0,30.63,SSE,167,13.0,13.0,10,0.00,BC,SCT,0.00,Misterhouse,2013-07-06 06:05:00,
2013-07-05 23:10:00,75.9,32.0,30.63,SSW,200,13.0,13.0,10,0.00,BC,SCT,0.00,Misterhouse,2013-07-06 06:10:00,
2013-07-05 23:15:00,75.7,32.0,30.63,SSE,164,12.0,13.0,10,0.00,BC,SCT,0.00,Misterhouse,2013-07-06 06:15:00,
2013-07-05 23:20:00,75.7,32.0,30.63,SSE,164,11.0,17.0,10,0.00,BC,SCT,0.00,Misterhouse,2013-07-06 06:20:00,
2013-07-05 23:25:00,75.9,32.0,30.63,South,181,13.0,13.0,10,0.00,BC,SCT,0.00,Misterhouse,2013-07-06 06:25:00,
2013-07-05 23:30:00,75.9,32.0,30.63,SSE,155,12.0,14.0,10,0.00,BC,SCT,0.00,Misterhouse,2013-07-06 06:30:00,
2013-07-05 23:35:00,75.7,32.0,30.63,South,169,12.0,12.0,10,0.00,BC,SCT,0.00,Misterhouse,2013-07-06 06:35:00,
2013-07-05 23:40:00,75.6,32.0,30.63,SSE,165,12.0,12.0,10,0.00,BC,SCT,0.00,Misterhouse,2013-07-06 06:40:00,
2013-07-05 23:45:00,75.2,32.0,30.63,SSW,193,11.0,11.0,10,0.00,BC,SCT,0.00,Misterhouse,2013-07-06 06:45:00,
2013-07-05 23:50:00,75.4,32.0,30.63,SSW,196,11.0,11.0,10,0.00,BC,SCT,0.00,Misterhouse,2013-07-06 06:50:00,
2013-07-05 23:55:00,75.6,32.0,30.63,SSW,196,11.0,11.0,10,0.00,BC,SCT,0.00,Misterhouse,2013-07-06 06:55:00,